TimeEST,TemperatureF,Dew PointF,Humidity,Sea Level PressureIn,VisibilityMPH,Wind Direction,Wind SpeedMPH,Gust SpeedMPH,PrecipitationIn,Events,Conditions,WindDirDegrees,DateUTC
12:15 AM,33.3,27.5,79,30.08,10.0,East,3.5,-,N/A,,Clear,100,2012-11-06 05:15:00
12:35 AM,34.3,27.5,76,30.08,10.0,ENE,4.6,-,N/A,,Clear,70,2012-11-06 05:35:00
12:55 AM,35.6,27.5,72,30.08,10.0,ENE,4.6,-,N/A,,Clear,70,2012-11-06 05:55:00
1:15 AM,34.5,27.5,76,30.07,10.0,East,5.8,-,N/A,,Clear,80,2012-11-06 06:15:00
1:35 AM,33.8,27.5,78,30.07,10.0,ENE,4.6,-,N/A,,Clear,70,2012-11-06 06:35:00
1:55 AM,33.8,27.3,77,30.06,10.0,ENE,6.9,-,N/A,,Clear,70,2012-11-06 06:55:00
2:15 AM,33.1,27.5,80,30.07,10.0,ESE,5.8,-,N/A,,Clear,110,2012-11-06 07:15:00
2:35 AM,32.5,27.3,81,30.07,10.0,ENE,5.8,-,N/A,,Clear,70,2012-11-06 07:35:00
2:55 AM,33.6,27.3,78,30.07,10.0,ENE,9.2,-,N/A,,Clear,60,2012-11-06 07:55:00
3:15 AM,32.5,27.3,81,30.06,10.0,ENE,8.1,-,N/A,,Clear,60,2012-11-06 08:15:00
3:35 AM,32.7,27.3,81,30.06,10.0,ENE,8.1,-,N/A,,Clear,60,2012-11-06 08:35:00
3:55 AM,32.0,27.3,83,30.06,10.0,ENE,8.1,-,N/A,,Clear,70,2012-11-06 08:55:00
4:15 AM,31.1,27.0,85,30.06,10.0,East,5.8,-,N/A,,Clear,80,2012-11-06 09:15:00
4:35 AM,30.9,27.0,85,30.06,10.0,ENE,5.8,-,N/A,,Clear,70,2012-11-06 09:35:00
4:55 AM,31.5,27.0,83,30.07,10.0,East,5.8,-,N/A,,Clear,80,2012-11-06 09:55:00
5:15 AM,30.7,26.8,85,30.07,10.0,ESE,4.6,-,N/A,,Clear,110,2012-11-06 10:15:00
5:35 AM,30.9,27.3,86,30.07,10.0,ENE,6.9,-,N/A,,Clear,70,2012-11-06 10:35:00
5:55 AM,31.8,27.3,83,30.07,10.0,NE,11.5,-,N/A,,Clear,50,2012-11-06 10:55:00
6:15 AM,31.3,27.3,85,30.07,10.0,ENE,10.4,-,N/A,,Clear,60,2012-11-06 11:15:00
6:35 AM,31.3,27.3,85,30.07,10.0,ENE,8.1,-,N/A,,Clear,60,2012-11-06 11:35:00
6:55 AM,31.8,27.5,84,30.07,10.0,ENE,9.2,-,N/A,,Scattered Clouds,70,2012-11-06 11:55:00
7:15 AM,31.1,27.5,87,30.08,10.0,East,4.6,-,N/A,,Mostly Cloudy,100,2012-11-06 12:15:00
7:35 AM,32.0,28.0,85,30.09,10.0,ENE,9.2,-,N/A,,Overcast,60,2012-11-06 12:35:00
7:55 AM,31.8,27.7,85,30.09,10.0,ENE,10.4,-,N/A,,Mostly Cloudy,60,2012-11-06 12:55:00
8:15 AM,32.0,28.2,86,30.09,10.0,ENE,8.1,-,N/A,,Clear,70,2012-11-06 13:15:00
8:35 AM,32.9,28.6,84,30.09,10.0,ENE,6.9,-,N/A,,Clear,60,2012-11-06 13:35:00
8:55 AM,34.3,29.3,82,30.09,10.0,ENE,9.2,-,N/A,,Clear,70,2012-11-06 13:55:00
9:15 AM,34.7,29.3,81,30.09,10.0,ENE,8.1,-,N/A,,Clear,70,2012-11-06 14:15:00
9:35 AM,34.9,29.3,80,30.09,10.0,NE,9.2,-,N/A,,Clear,50,2012-11-06 14:35:00
9:55 AM,35.6,29.5,78,30.09,10.0,NE,10.4,-,N/A,,Clear,50,2012-11-06 14:55:00
10:15 AM,36.7,30.6,78,30.08,10.0,ENE,9.2,-,N/A,,Clear,70,2012-11-06 15:15:00
10:35 AM,37.4,29.3,73,30.09,10.0,ENE,9.2,-,N/A,,Scattered Clouds,70,2012-11-06 15:35:00
10:55 AM,37.9,29.8,73,30.07,10.0,ENE,9.2,-,N/A,,Scattered Clouds,70,2012-11-06 15:55:00
11:15 AM,38.5,30.2,72,30.07,10.0,ENE,8.1,-,N/A,,Clear,70,2012-11-06 16:15:00
11:35 AM,38.7,30.2,72,30.06,10.0,ENE,8.1,-,N/A,,Clear,70,2012-11-06 16:35:00
11:55 AM,39.2,30.4,71,30.05,10.0,NE,10.4,-,N/A,,Clear,50,2012-11-06 16:55:00
12:15 PM,39.2,30.4,71,30.03,10.0,ENE,8.1,-,N/A,,Clear,60,2012-11-06 17:15:00
12:35 PM,39.7,30.4,69,30.03,10.0,ENE,6.9,-,N/A,,Clear,70,2012-11-06 17:35:00
12:55 PM,39.7,30.4,69,30.02,10.0,ENE,5.8,-,N/A,,Clear,60,2012-11-06 17:55:00
1:15 PM,40.1,30.7,69,30.01,10.0,East,5.8,-,N/A,,Clear,80,2012-11-06 18:15:00
1:35 PM,39.9,30.0,68,30.00,10.0,ENE,6.9,-,N/A,,Clear,60,2012-11-06 18:35:00
1:55 PM,40.1,30.2,68,30.00,10.0,ENE,6.9,-,N/A,,Clear,70,2012-11-06 18:55:00
2:15 PM,40.3,30.4,68,30.00,10.0,NE,6.9,-,N/A,,Clear,50,2012-11-06 19:15:00
2:35 PM,40.1,29.8,67,29.99,10.0,NE,6.9,-,N/A,,Clear,40,2012-11-06 19:35:00
2:55 PM,40.3,29.8,66,29.98,10.0,NE,4.6,-,N/A,,Clear,40,2012-11-06 19:55:00
3:15 PM,40.5,30.2,67,29.98,10.0,ENE,4.6,-,N/A,,Clear,70,2012-11-06 20:15:00
3:35 PM,40.3,29.7,66,29.97,10.0,Calm,Calm,-,N/A,,Clear,0,2012-11-06 20:35:00
3:55 PM,40.3,30.2,67,29.97,10.0,East,4.6,-,N/A,,Clear,80,2012-11-06 20:55:00
4:15 PM,40.1,29.8,67,29.96,10.0,East,3.5,-,N/A,,Clear,80,2012-11-06 21:15:00
4:35 PM,39.7,30.4,69,29.96,10.0,NE,4.6,-,N/A,,Clear,50,2012-11-06 21:35:00
4:55 PM,39.2,30.6,71,29.96,10.0,ENE,4.6,-,N/A,,Clear,60,2012-11-06 21:55:00
5:15 PM,38.7,30.2,72,29.96,10.0,ENE,4.6,-,N/A,,Clear,60,2012-11-06 22:15:00
5:35 PM,37.8,30.7,76,29.96,10.0,Calm,Calm,-,N/A,,Clear,0,2012-11-06 22:35:00
5:55 PM,37.4,30.9,77,29.96,10.0,Calm,Calm,-,N/A,,Clear,0,2012-11-06 22:55:00
6:35 PM,37.0,30.9,79,29.98,10.0,Calm,Calm,-,N/A,,Scattered Clouds,0,2012-11-06 23:35:00
6:55 PM,35.6,31.1,84,29.98,10.0,East,3.5,-,N/A,,Overcast,100,2012-11-06 23:55:00
7:15 PM,35.6,31.1,84,29.98,10.0,East,3.5,-,N/A,,Mostly Cloudy,90,2012-11-07 00:15:00
7:35 PM,35.6,30.6,82,29.98,10.0,Calm,Calm,-,N/A,,Scattered Clouds,0,2012-11-07 00:35:00
7:55 PM,34.3,30.4,85,29.98,10.0,Calm,Calm,-,N/A,,Clear,0,2012-11-07 00:55:00
8:15 PM,34.0,30.2,86,29.98,10.0,Calm,Calm,-,N/A,,Clear,0,2012-11-07 01:15:00
8:35 PM,33.4,30.2,88,29.97,10.0,Calm,Calm,-,N/A,,Clear,0,2012-11-07 01:35:00
8:55 PM,32.4,29.7,90,29.96,7.0,Calm,Calm,-,N/A,,Clear,0,2012-11-07 01:55:00
9:15 PM,33.3,29.8,87,29.96,10.0,Calm,Calm,-,N/A,,Clear,0,2012-11-07 02:15:00
9:35 PM,32.2,29.5,90,29.96,7.0,Calm,Calm,-,N/A,,Clear,0,2012-11-07 02:35:00
9:55 PM,31.6,29.3,91,29.95,7.0,East,4.6,-,N/A,,Clear,90,2012-11-07 02:55:00
10:15 PM,32.0,28.9,88,29.95,7.0,Calm,Calm,-,N/A,,Clear,0,2012-11-07 03:15:00
10:35 PM,32.2,29.1,88,29.95,7.0,Calm,Calm,-,N/A,,Clear,0,2012-11-07 03:35:00
10:55 PM,32.0,28.9,88,29.95,7.0,Calm,Calm,-,N/A,,Scattered Clouds,0,2012-11-07 03:55:00
11:15 PM,31.1,28.4,90,29.95,7.0,Calm,Calm,-,N/A,,Mostly Cloudy,0,2012-11-07 04:15:00
11:35 PM,29.1,27.5,94,29.94,5.0,Calm,Calm,-,N/A,,Scattered Clouds,0,2012-11-07 04:35:00
11:55 PM,29.8,28.0,93,29.94,5.0,Calm,Calm,-,N/A,,Scattered Clouds,0,2012-11-07 04:55:00